sat.trackr.live / text

‹ back to catalog

STARLINK-37382

NORAD 68851 · 2026-094N

PAYLOAD ACTIVE UNKNOWN

§ Identity

Operator
Country
US
Launch date
2026-04-26
Launch site
AFWTR
Launch vehicle
Mass (kg)
RCS (m²)

Purposes: comms

External: N2YO · Heavens-Above · Gunter

§ Orbital elements

Epoch: 2026-09-19T19:45:23.544288Z

Period
93.90 min
Inclination
97.2847°
Eccentricity
0.0001485
Mean motion
15.33465486 rev/d
Perigee alt
464.5 km
Apogee alt
466.5 km
Semi-major
6,843.6 km
B*
3.5084e-4
RAAN
275.9502°
Arg perigee
92.7390°
Mean anomaly
267.4023°
Rev number
2,255

§ Raw data

STARLINK-373821 68851U 26094N   26262.82318917  .00011276  00000+0  35084-3 0  99952 68851  97.2847 275.9502 0001485  92.7390 267.4023 15.33465486 22558

JSON: /api/v1/satellites/68851 · /tle

For live sub-satellite position, see the globe view (requires WebGL).

§ Visibility from observer

Set your observer location to see the next 7 days of passes ≥ 10°. The values pass through the URL so the page stays shareable.

No JS? Fill the form by hand. The geolocation button needs JavaScript.